Vancouver, WA
on Sunday, November 25, 2012

Sunday
Previous Day Next Day
Daily Summary
 ActualAverageRecord
Temperature
Mean Temperature °F 44°F  
Max Temperature 49°F 50°F 62°F (1998)
Min Temperature 34°F 38°F 24°F (2007)
Degree Days
Heating Degree Days 23    
Month to date heating degree days 399  
Since 1 July heating degree days 718  
Cooling Degree Days 0    
Month to date cooling degree days 0  
Year to date cooling degree days 398  
Moisture
Dew Point 36°F   
Average Humidity 71    
Maximum Humidity 93    
Minimum Humidity 49    
Precipitation
Precipitation 0.00 in 0.22 in 1.92 in (1998)
Month to date precipitation 6.12 4.78  
Year to date precipitation 37.28 31.24  
Snow
Snow 0.00 in in in ()
Month to date snowfall 0.0  
Since 1 July snowfall 0.0  
Since 1 September snowfall 0.0  
Snow Depth 0.00 in   
Wind
Wind Speed 3 mph   
Max Wind Speed 15 mph   
Max Gust Speed 23 mph   
Visibility 7 miles   
Events     

Key: T is trace of precipitation, MM is missing value
Source: NWS Daily Summary
Time(PST)TemperatureDew PointHumidity Pressure Visibility Wind DirectionWind SpeedGust SpeedPrecipitationEvents Conditions
12:02 AM 33.8°F 33.8°F 100% 30.26 in 1.5 miles Calm Calm - N/A   Clear
12:04 AM 33.8°F 33.8°F 100% 30.26 in 3.0 miles Calm Calm - N/A   Partly Cloudy
12:12 AM 35.6°F 33.8°F 93% 30.26 in 2.0 miles Calm Calm - N/A   Scattered Clouds
12:21 AM 33.8°F 33.8°F 100% 30.27 in 2.5 miles Calm Calm - N/A   Mostly Cloudy
12:27 AM 35.6°F 33.8°F 93% 30.26 in 2.0 miles Calm Calm - N/A   Mostly Cloudy
12:38 AM 37.4°F 35.6°F 93% 30.26 in 6.0 miles Calm Calm - N/A   Overcast
12:53 AM 41.0°F 39.0°F 93% 30.27 in 2.0 miles Calm Calm - N/A   Overcast
1:08 AM 41.0°F 39.2°F 93% 30.26 in 3.0 miles Calm Calm - N/A   Overcast
1:53 AM 41.0°F 39.9°F 96% 30.27 in 6.0 miles NNW 3.5 mph - 0.01 in   Overcast
2:29 AM 42.8°F 39.2°F 87% 30.28 in 9.0 miles Variable 3.5 mph - N/A   Overcast
2:53 AM 42.1°F 39.9°F 92% 30.28 in 9.0 miles Calm Calm - N/A   Overcast
3:53 AM 42.1°F 39.9°F 92% 30.28 in 7.0 miles Calm Calm - N/A   Overcast
4:53 AM 41.0°F 39.0°F 93% 30.28 in 9.0 miles Calm Calm - N/A   Overcast
5:09 AM 39.2°F 37.4°F 93% 30.28 in 6.0 miles East 4.6 mph - N/A   Overcast
5:53 AM 39.0°F 37.0°F 93% 30.28 in 10.0 miles ENE 3.5 mph - N/A   Overcast
6:53 AM 39.0°F 37.9°F 96% 30.29 in 5.0 miles NE 3.5 mph - N/A   Overcast
7:48 AM 39.2°F 37.4°F 93% 30.29 in 2.5 miles Calm Calm - N/A   Overcast
7:53 AM 39.0°F 37.9°F 96% 30.30 in 2.0 miles North 4.6 mph - N/A   Overcast
7:57 AM 39.2°F 37.4°F 93% 30.29 in 1.2 miles NNE 3.5 mph - N/A   Overcast
8:11 AM 39.2°F 37.4°F 93% 30.30 in 2.0 miles Calm Calm - N/A   Overcast
8:31 AM 39.2°F 37.4°F 93% 30.30 in 4.0 miles NE 3.5 mph - N/A   Overcast
8:48 AM 39.2°F 37.4°F 93% 30.30 in 2.5 miles Calm Calm - N/A   Overcast
8:53 AM 39.0°F 37.9°F 96% 30.30 in 4.0 miles Calm Calm - N/A   Overcast
9:53 AM 41.0°F 37.9°F 89% 30.30 in 10.0 miles Calm Calm - N/A   Overcast
10:05 AM 41.0°F 37.4°F 87% 30.30 in 10.0 miles Calm Calm - N/A   Overcast
10:21 AM 42.8°F 37.4°F 81% 30.30 in 10.0 miles Calm Calm - N/A   Overcast
10:53 AM 42.1°F 37.0°F 82% 30.30 in 10.0 miles NNW 3.5 mph - N/A   Overcast
11:19 AM 42.8°F 35.6°F 76% 30.29 in 10.0 miles NNW 3.5 mph - N/A   Overcast
11:53 AM 44.1°F 37.0°F 76% 30.28 in 10.0 miles Variable 3.5 mph - N/A   Overcast
12:53 PM 45.0°F 37.0°F 74% 30.26 in 10.0 miles NNW 4.6 mph - N/A   Overcast
1:32 PM 46.4°F 37.4°F 71% 30.24 in 10.0 miles NE 4.6 mph - N/A   Partly Cloudy
1:53 PM 46.9°F 37.9°F 71% 30.24 in 10.0 miles NW 4.6 mph - N/A   Clear
2:53 PM 48.0°F 39.0°F 71% 30.22 in 10.0 miles West 3.5 mph - N/A   Clear
3:53 PM 48.0°F 37.9°F 68% 30.21 in 10.0 miles NNW 3.5 mph - N/A   Clear
4:53 PM 46.0°F 37.9°F 73% 30.19 in 10.0 miles North 3.5 mph - N/A   Clear
5:53 PM 44.1°F 37.9°F 79% 30.18 in 10.0 miles Calm Calm - N/A   Clear
6:53 PM 42.1°F 37.0°F 82% 30.17 in 10.0 miles NNW 3.5 mph - N/A   Clear
7:53 PM 41.0°F 36.0°F 82% 30.17 in 10.0 miles North 3.5 mph - N/A   Clear
8:53 PM 46.0°F 30.0°F 54% 30.16 in 10.0 miles ENE 8.1 mph - N/A   Clear
9:53 PM 46.9°F 30.0°F 52% 30.14 in 10.0 miles East 8.1 mph 17.3 mph N/A   Clear
10:53 PM 46.9°F 28.9°F 50% 30.13 in 10.0 miles East 5.8 mph - N/A   Clear
11:53 PM 46.9°F 27.0°F 46% 30.14 in 10.0 miles East 9.2 mph - N/A   Clear
Moon Phase
Nov. 25 Nov. 28 Dec. 06 Dec. 13 Dec. 20
Sunrise:07:24 AM (PST) Moon Rise:02:55 PM (PST)
Sunset:04:31 PM (PST) Moon Set:04:37 AM (PST)

Copyright © 2014 The Weather Underground, Inc.